Location: Newark
(40.9833°N, 0.0333°W)
Time: 17:41:00
(UTC+00:00)

Vanguard 2 Rocket - Pass Details

Date: 28 October 2020
Orbit: 554 x 3326 km, 32.9° (Epoch: 24 November)

Event Time Altitude Azimuth Distance (km) Brightness Sun altitude
Rises 18:27:15 0° 236° (SW) 2,715 10.4 -16.9°
Reaches altitude 10° 18:29:38 10° 222° (SW) 1,833 9.1 -17.4°
Maximum altitude 18:32:56 25° 165° (SSE) 1,235 7.5 -18.0°
Enters shadow 18:34:10 22° 139° (SE) 1,398 7.5 -18.2°
Drops below altitude 10° 18:36:55 10° 110° (ESE) 2,240 - -18.7°
Sets 18:40:11 0° 97° (E) 3,492 - -19.3°
